sat.trackr.live / text

‹ back to catalog

STARLINK-11368 [DTC]

NORAD 61583 · 2024-187K

PAYLOAD ACTIVE UNKNOWN

§ Identity

Operator
Country
US
Launch date
2024-10-18
Launch site
AFETR
Launch vehicle
Mass (kg)
RCS (m²)

Purposes: comms

External: N2YO · Heavens-Above · Gunter

§ Orbital elements

Epoch: 2026-05-24T18:05:19.786272Z

Period
91.74 min
Inclination
53.1600°
Eccentricity
0.0001030
Mean motion
15.69699966 rev/d
Perigee alt
359.1 km
Apogee alt
360.4 km
Semi-major
6,737.9 km
B*
2.6582e-5
RAAN
281.5300°
Arg perigee
98.6945°
Mean anomaly
261.4190°
Rev number
9,264

§ Raw data

STARLINK-11368 [DTC]1 61583U 24187K   26144.75370123  .00002632  00000+0  26582-4 0  99992 61583  53.1600 281.5300 0001030  98.6945 261.4190 15.69699966 92644

JSON: /api/v1/satellites/61583 · /tle

For live sub-satellite position, see the globe view (requires WebGL).

§ Visibility from observer

Set your observer location to see the next 7 days of passes ≥ 10°. The values pass through the URL so the page stays shareable.

No JS? Fill the form by hand. The geolocation button needs JavaScript.